Date String (YYYY-MM-DD hh:mm:ss) UTC,Instrument flags,Ambient pressure (hPa),Sample flow (lpm),Bypass flow (lpm),Sample temperature (°C),Ambient temperature (°C),ASC tube jacket temperature (°C),LED temperature (°C),Box temperature (°C),Sample RH (%),Span deviation,Mass concentration (μg/m³),Mass concentration (μg/m³),Mass concentration (μg/m³)
DateTimeUTC,F1_M11,P_M11,Q1_M11,Q2_M11,T1_M11,T2_M11,T3_M11,T4_M11,T5_M11,U1_M11,ZSPAN_M11,X0_M11,X2_M11,X1_M11
2021-12-05 11:00:00,,0818.7,5.00,0.00,25.4,24.6,00.0,34.5,27.1,06.9,0000.0,0003.01,0000.87,0000.59
2021-12-05 11:01:00,,0818.7,4.99,0.00,25.4,24.6,00.0,34.5,27.1,06.8,0000.0,0002.84,0000.82,0000.58
2021-12-05 11:02:00,,0818.4,5.01,0.00,25.4,24.6,00.0,34.5,27.2,06.7,0000.0,0002.74,0000.78,0000.57
2021-12-05 11:03:00,,0818.2,4.99,0.00,25.4,24.6,00.0,34.5,27.2,06.5,0000.0,0002.81,0000.78,0000.55
2021-12-05 11:04:00,,0818.3,5.00,0.00,25.4,24.6,00.0,34.5,27.2,06.6,0000.0,0003.04,0000.75,0000.54
2021-12-05 11:05:00,,0818.4,5.00,0.00,25.4,24.6,00.0,34.5,27.2,07.2,0000.0,0002.98,0000.72,0000.54
2021-12-05 11:06:00,,0818.4,5.02,0.00,25.4,24.6,00.0,34.5,27.2,07.4,0000.0,0003.18,0000.75,0000.55
2021-12-05 11:07:00,,0818.4,5.00,0.00,25.4,24.7,00.0,34.5,27.2,07.4,0000.0,0003.12,0000.76,0000.55
2021-12-05 11:08:00,,0818.5,5.00,0.00,25.4,24.6,00.0,34.5,27.1,07.4,0000.0,0003.13,0000.76,0000.55
2021-12-05 11:09:00,,0818.4,5.02,0.00,25.4,24.6,00.0,34.5,27.1,07.3,0000.0,0003.19,0000.79,0000.57
2021-12-05 11:10:00,,0818.4,5.00,0.00,25.4,24.6,00.0,34.5,27.1,07.3,0000.0,0002.40,0000.78,0000.58
2021-12-05 11:11:00,,0818.5,5.00,0.00,25.4,24.6,00.0,34.5,27.1,07.3,0000.0,0001.77,0000.76,0000.58
2021-12-05 11:12:00,,0818.6,4.99,0.00,25.4,24.6,00.0,34.5,27.1,07.3,0000.0,0002.40,0000.83,0000.60
2021-12-05 11:13:00,,0818.7,5.01,0.00,25.4,24.7,00.0,34.4,27.1,07.3,0000.0,0002.63,0000.89,0000.62
2021-12-05 11:14:00,,0818.6,5.00,0.00,25.4,24.7,00.0,34.4,27.1,06.9,0000.0,0002.68,0000.91,0000.63
2021-12-05 11:15:00,,0818.4,5.00,0.00,25.4,24.7,00.0,34.4,27.2,06.5,0000.0,0002.37,0000.92,0000.63
2021-12-05 11:16:00,,0818.4,5.00,0.00,25.4,24.8,00.0,34.4,27.2,06.5,0000.0,0002.39,0000.91,0000.62
2021-12-05 11:17:00,,0818.4,5.00,0.00,25.5,24.8,00.0,34.4,27.2,06.5,0000.0,0002.18,0000.86,0000.60
2021-12-05 11:18:00,,0818.4,5.00,0.00,25.5,24.8,00.0,34.4,27.3,06.5,0000.0,0002.04,0000.82,0000.58
2021-12-05 11:19:00,,0818.4,5.01,0.00,25.5,24.9,00.0,34.5,27.3,06.6,0000.0,0002.05,0000.83,0000.56
2021-12-05 11:20:00,,0818.4,4.99,0.00,25.5,24.9,00.0,34.5,27.3,06.7,0000.0,0002.09,0000.84,0000.53
2021-12-05 11:21:00,,0818.3,5.00,0.00,25.5,24.9,00.0,34.5,27.3,06.7,0000.0,0002.10,0000.83,0000.51
2021-12-05 11:22:00,,0818.4,5.01,0.00,25.5,24.9,00.0,34.5,27.4,06.6,0000.0,0002.11,0000.83,0000.49
2021-12-05 11:23:00,,0818.4,5.00,0.00,25.5,24.9,00.0,34.5,27.4,06.5,0000.0,0001.41,0000.75,0000.47
2021-12-05 11:24:00,,0818.4,4.99,0.00,25.6,24.9,00.0,34.5,27.4,06.6,0000.0,0001.24,0000.71,0000.45
2021-12-05 11:25:00,,0818.4,5.00,0.00,25.6,24.9,00.0,34.5,27.4,06.8,0000.0,0001.23,0000.71,0000.45
2021-12-05 11:26:00,,0818.3,5.01,0.00,25.6,24.9,00.0,34.5,27.4,07.0,0000.0,0001.14,0000.69,0000.46
2021-12-05 11:27:00,,0818.2,4.99,0.00,25.6,24.9,00.0,34.5,27.4,07.1,0000.0,0001.16,0000.72,0000.47
2021-12-05 11:28:00,,0818.2,5.00,0.00,25.6,24.9,00.0,34.5,27.4,07.0,0000.0,0001.38,0000.75,0000.48
2021-12-05 11:29:00,,0818.1,4.99,0.00,25.6,24.9,00.0,34.5,27.4,07.1,0000.0,0001.49,0000.74,0000.49
2021-12-05 11:30:00,,0818.0,5.01,0.00,25.6,24.9,00.0,34.5,27.4,07.1,0000.0,0001.49,0000.73,0000.49
2021-12-05 11:31:00,,0818.0,4.99,0.00,25.6,24.9,00.0,34.5,27.4,07.1,0000.0,0001.45,0000.72,0000.49
2021-12-05 11:32:00,,0818.0,5.01,0.00,25.6,24.9,00.0,34.6,27.4,07.0,0000.0,0001.59,0000.75,0000.49
2021-12-05 11:33:00,,0818.0,5.00,0.00,25.6,24.9,00.0,34.6,27.4,06.9,0000.0,0002.42,0000.77,0000.50
2021-12-05 11:34:00,,0817.9,5.01,0.00,25.6,24.9,00.0,34.6,27.3,07.2,0000.0,0002.55,0000.80,0000.51
2021-12-05 11:35:00,,0817.9,5.00,0.00,25.6,24.9,00.0,34.6,27.3,07.2,0000.0,0003.05,0000.84,0000.52
2021-12-05 11:36:00,,0818.0,5.00,0.00,25.6,24.9,00.0,34.6,27.3,07.3,0000.0,0003.24,0000.84,0000.51
2021-12-05 11:37:00,,0818.0,5.01,0.00,25.6,24.9,00.0,34.6,27.4,07.3,0000.0,0003.29,0000.87,0000.51
2021-12-05 11:38:00,,0818.0,4.99,0.00,25.6,24.9,00.0,34.6,27.3,07.3,0000.0,0003.34,0000.88,0000.51
2021-12-05 11:39:00,,0818.0,5.00,0.00,25.6,24.9,00.0,34.6,27.3,07.2,0000.0,0003.27,0000.89,0000.50
2021-12-05 11:40:00,,0818.0,5.00,0.00,25.6,24.9,00.0,34.6,27.3,07.3,0000.0,0003.17,0000.92,0000.50
2021-12-05 11:41:00,,0818.0,5.00,0.00,25.6,24.9,00.0,34.6,27.4,07.3,0000.0,0003.78,0000.92,0000.50
2021-12-05 11:42:00,,0818.0,4.99,0.00,25.7,24.9,00.0,34.6,27.4,07.3,0000.0,0003.81,0000.90,0000.49
2021-12-05 11:43:00,,0818.0,5.00,0.00,25.7,24.8,00.0,34.6,27.4,07.3,0000.0,0003.75,0000.90,0000.50
2021-12-05 11:44:00,,0818.0,5.01,0.00,25.7,24.8,00.0,34.6,27.5,07.3,0000.0,0003.12,0000.91,0000.49
2021-12-05 11:45:00,,0818.0,5.00,0.00,25.7,24.8,00.0,34.6,27.4,07.4,0000.0,0003.25,0000.91,0000.49
2021-12-05 11:46:00,,0818.0,4.99,0.00,25.6,24.8,00.0,34.6,27.4,07.4,0000.0,0002.93,0000.90,0000.48
2021-12-05 11:47:00,,0818.0,4.99,0.00,25.6,24.8,00.0,34.6,27.4,07.3,0000.0,0002.61,0000.90,0000.48
2021-12-05 11:48:00,,0818.0,4.99,0.00,25.6,24.8,00.0,34.6,27.4,07.4,0000.0,0003.44,0000.88,0000.49
2021-12-05 11:49:00,,0818.0,5.01,0.00,25.6,24.8,00.0,34.6,27.4,07.4,0000.0,0003.81,0000.90,0000.50
2021-12-05 11:50:00,,0818.0,4.99,0.00,25.6,24.7,00.0,34.6,27.3,07.4,0000.0,0003.77,0000.90,0000.49
2021-12-05 11:51:00,,0817.9,5.01,0.00,25.6,24.7,00.0,34.6,27.3,07.4,0000.0,0003.87,0000.92,0000.49
2021-12-05 11:52:00,,0818.0,5.00,0.00,25.6,24.7,00.0,34.6,27.3,07.3,0000.0,0003.39,0000.97,0000.49
2021-12-05 11:53:00,,0818.1,5.00,0.00,25.6,24.6,00.0,34.6,27.3,07.3,0000.0,0003.79,0001.10,0000.49
2021-12-05 11:54:00,,0818.0,5.01,0.00,25.6,24.7,00.0,34.6,27.3,07.3,0000.0,0003.95,0001.12,0000.49
2021-12-05 11:55:00,,0817.8,5.01,0.00,25.6,24.7,00.0,34.6,27.3,07.3,0000.0,0005.14,0001.15,0000.50
2021-12-05 11:56:00,,0817.7,5.00,0.00,25.6,24.7,00.0,34.6,27.3,07.3,0000.0,0005.42,0001.25,0000.50
2021-12-05 11:57:00,,0817.5,5.00,0.00,25.6,24.7,00.0,34.6,27.3,07.4,0000.0,0007.14,0001.70,0000.53
2021-12-05 11:58:00,,0817.7,4.99,0.00,25.6,24.6,00.0,34.6,27.3,07.2,0000.0,0008.15,0002.15,0000.57
2021-12-05 11:59:00,,0817.7,4.99,0.00,25.6,24.6,00.0,34.6,27.3,07.2,0000.0,0009.84,0002.36,0000.58
